Location: Unspecified
(64.9000°N, 0.0000°E)
Time: 09:03:22
(UTC+00:00)

Altair - Pass Details

Date: 23 June 2019
Orbit: 1501 x 1683 km, 47.2° (Epoch: 17 July)

Event Time Altitude Azimuth Distance (km) Brightness Sun altitude
Rises 02:41:06 0° 273° (W) 4,860 9.8 3.5°
Reaches altitude 10° 02:48:29 10° 238° (WSW) 3,913 9.1 4.0°
Maximum altitude 02:49:48 10° 230° (SW) 3,892 9.0 4.0°
Drops below altitude 10° 02:51:07 10° 222° (SW) 3,923 9.0 4.1°
Sets 02:58:38 0° 186° (S) 4,927 9.6 4.6°
